User: anonymous   Login
Location: Corralito
(14.1667°N, 87.1833°W)
Time: 15:37:21
(UTC+00:00)
Language:

Cosmos 967 Rocket - Orbit

View from above orbital plane
View from above orbital plane
View from above satellite
View from above satellite

Ground track
Ground track

The orbit data is extracted from the following two-line orbital elements,

1 10513U 77116B   21164.20388142 -.00000032  00000-0  48442-4 0  9996
2 10513  65.8329 105.5153 0021654  18.1103  81.6510 13.78568750188768
Epoch (UTC): 13 June 2021 04:53:35
Eccentricity: 0.0021654
inclination: 65.8329°
perigee height: 953 km
apogee height: 985 km
right ascension of ascending node: 105.5153°
argument of perigee: 18.1103°
revolutions per day: 13.78568750
mean anomaly at epoch: 81.6510°
orbit number at epoch: 18876

The dashed part of the orbit path shows where the satellite is in the earth's shadow,  

DLR